User: anonymous   Login
Location: Santa Teresa Spring
(37.2333°N, 121.7000°W)
Time: 07:11:42
(UTC-08:00)
Language:

Cosmos 1633 - Orbit

View from above orbital plane
View from above orbital plane
View from above satellite
View from above satellite

Ground track
Ground track

The orbit data is extracted from the following two-line orbital elements,

1 15592U 85020A   15063.15750497  .00007855  00000-0  33758-3 0  9994
2 15592 082.5371 074.0486 0014211 239.1869 163.5412 15.22419996636786
Epoch (UTC): 04 March 2015 03:46:48
Eccentricity: 0.0014211
inclination: 82.5371°
perigee height: 489 km
apogee height: 508 km
right ascension of ascending node: 74.0486°
argument of perigee: 239.1869°
revolutions per day: 15.22419996
mean anomaly at epoch: 163.5412°
orbit number at epoch: 63678

The dashed part of the orbit path shows where the satellite is in the earth's shadow,  

DLR